Tracking 29089 objects as of 12-Jul-2024
HD Live streaming from Space Station
objects crossing your sky now

ATLAS 5 CENTAUR DEB

Track ATLAS 5 CENTAUR DEB now!


NORAD ID: 57591
Int'l Code: 2018-079HS
Perigee: 9,574.7 km
Apogee: 34,755.4 km
Inclination: 11.2 °
Period: 799.6 minutes
Semi major axis: 28536 km
RCS: Unknown
Launch date: October 17, 2018
Source: United States (US)
Launch site: AIR FORCE EASTERN TEST RANGE (AFETR)

Note: This is SATELLITE DEBRIS
Your satellite tracking list
Your tracking list is empty




NASA's NSSDC Master Catalog

Two Line Element Set (TLE):
1 57591U 18079HS  24189.27024990 -.00000108  00000-0  00000-0 0  9999
2 57591  11.2347 122.6284 4412091 149.2709 246.1672  1.80099391 12714
Source of the keplerian elements: AFSPC